STARLINK-33758, 64004

Orbit data source: Space-Track

STARLINK-33758, 64004 is a payload satellite owned by SpaceX/Seattle (US) in LEO that was launched on Wed, 14 May 2025 UTC via an FALCON 9 launch vehicle from the Air Force Eastern Test Range (AFETR). Payload-class satellites include a variety of spacecraft equipped with specific instruments for various scientific and technological missions. These include communications satellites like Starlink; space stations such as the ISS; scientific satellites like the Hubble; Earth observation satellites from companies like Planet Labs, Umbra, and HawkEye 360; GPS; miniature CubeSats for education and research; and military/defense satellites.

Loading next visibility...
Identifier
64004, 2025-101L
Orbit
LEO
Country
Flag of USUS
Related business
Manufacturer
SpaceX/Seattle
Mission
Operational Commercial Communications
Bus & Motor
STARLINK V2MO, Unknown motor
Mass
575 kg wet, ~530 kg dry
Launch date (UTC)
2025-05-14 (1 year ago)
Launch vehicle
FALCON 9
Launch site
Air Force Eastern Test Range (AFETR)
Object type
Payload
Rocket body
Debris
Shape & HBR
Box + 2 Pan, 17.7 m
Radar Cross Section
36.964 m², Large (>1 m²)

Expand to show TLE details & history
Last TLE update: 13 hours ago

TLE from 13 hours ago
0 STARLINK-33758
1 64004U 25101L   26171.34349060  .00010984  00000-0  40793-3 0  9997
2 64004  42.9998 138.3262 0001087 266.3761  93.6966 15.27592525 62751
Epoch: 2026-06-20T08:14Z
TLE epoch observation values (Epoch: 2026-06-20T08:14:37.587Z)
Latitude
-0.00006°
Longitude
106.11005°
Altitude
482.835 km
Speed
7.626 km/s
True Right ascension
09h 13m 18s
True Declination
0° 00' 00"
Sunlit
Object was in daylight at epoch
Visualization orbit readout
Latitude
Unknown
Longitude
Unknown
Altitude
Unknown
Speed
Unknown
Apparent Right ascension
Unknown
Apparent Declination
Unknown
Sunlit
N/A
Visualization observer readout
Local Sidereal Time
08:32:51
Azimuth
Unknown
Elevation
Unknown
Doppler factor
Unknown
Orbital elements
Apogee altitude
485.703 km
Perigee altitude
484.211 km
Semi-major axis
6,863.094 km
Eccentricity
0.00011
Inclination
42.9998°
RAAN
138.3262°
Arg. of periapsis
266.3761°
True anomaly
93.70903°
Mean anomaly
93.6966°
Eccentric anomaly
93.70282°
Mean motion
3.81736 °/min
Orbital period
94.31 mins
BSTAR
0.00040793
Loading maneuver chart data...
Computing Atmospheric mass density...
Loading historical data...
Loading historical data...
Loading historical data...
Loading historical data...
Loading historical data...
Loading historical data...
Loading historical data...

Documentation

Showing up to 5 results
|